Granite Falls, MN

5:11 PM CST on January 21, 2017 (GMT -0600)
Granite Falls

Weather History for KGDB - January, 2013

Change the Weather History Date:

Tuesday, January 1, 2013

  Actual Average (KMVE) Record (KMVE)
Temperature  
Mean Temperature 6 °F -  
Max Temperature 22 °F 21 °F 47 °F (1981)
Min Temperature -11 °F 3 °F -34 °F (1974)
Degree Days  
Heating Degree Days 60    
Moisture  
Dew Point 8 °F    
Average Humidity 83    
Maximum Humidity 89    
Minimum Humidity 78    
Precipitation  
Precipitation 0.00 in - - ()
Sea Level Pressure  
Sea Level Pressure 30.16 in    
Wind  
Wind Speed 4 mph (South)    
Max Wind Speed 16 mph    
Max Gust Speed 16 mph    
Visibility 9 miles    
Events Snow    
Averages and records for this station are not official NWS values.
T = Trace of Precipitation, MM = Missing Value Source: NWS Daily Summary

Daily Weather History Graph

Daily Weather History Graph

Search for Another Location

Airport or City:

Trip Planner

Search our weather history database for the weather conditions in past years. The results will help you decide how hot, cold, wet, or windy it might be!

Date:

Astronomy

Jan. 01, 2013 Rise Set
Actual Time 7:59 AM CST 4:52 PM CST
Civil Twilight 7:26 AM CST 5:26 PM CST
Nautical Twilight 6:49 AM CST 6:02 PM CST
Astronomical Twilight 6:13 AM CST 6:38 PM CST
Moon 9:36 PM CST (1/1) 10:01 AM CST (1/1)
Length of Visible Light 9h 59m
Length of Day
8h 52m
Waning Gibbous, 83% of the Moon is Illuminated
Jan 1
Waning Gibbous
Jan 4
Last Quarter
Jan 11
New
Jan 18
First Quarter
Jan 26
Full

Hourly Weather History & Observations

Time (CST) Temp. Windchill Dew Point Humidity Pressure Visibility Wind Dir Wind Speed Gust Speed Precip Events Conditions
12:11 AM -11.4 °F - -15.9 °F 80% 30.29 in 10.0 mi Calm Calm - N/A   Clear
12:31 AM -10.7 °F - -15.2 °F 80% 30.29 in 10.0 mi Calm Calm - N/A   Scattered Clouds
12:51 AM -11.7 °F - -16.8 °F 78% 30.28 in 10.0 mi Calm Calm - N/A   Scattered Clouds
1:11 AM -11.9 °F - -16.2 °F 81% 30.28 in 10.0 mi Calm Calm - N/A   Scattered Clouds
1:31 AM -7.4 °F - -11.7 °F 81% 30.28 in 10.0 mi Calm Calm - N/A   Overcast
1:51 AM -6.2 °F - -10.1 °F 83% 30.27 in 10.0 mi Calm Calm - N/A   Overcast
2:11 AM -4.9 °F - -9.2 °F 82% 30.28 in 10.0 mi Calm Calm - N/A   Overcast
2:31 AM -3.6 °F - -7.6 °F 83% 30.28 in 10.0 mi Calm Calm - N/A   Overcast
2:51 AM -2.7 °F - -6.7 °F 83% 30.28 in 10.0 mi Calm Calm - N/A   Overcast
3:11 AM -1.7 °F - -5.6 °F 83% 30.27 in 10.0 mi Calm Calm - N/A   Overcast
3:31 AM -1.3 °F - -5.1 °F 84% 30.26 in 10.0 mi Calm Calm - N/A Snow Light Snow
3:51 AM -0.2 °F - -4.0 °F 84% 30.27 in 10.0 mi Calm Calm - N/A   Overcast
4:11 AM 0.3 °F - -3.6 °F 83% 30.26 in 10.0 mi Calm Calm - N/A Snow Light Snow
4:31 AM 0.9 °F - -3.1 °F 83% 30.26 in 10.0 mi Calm Calm - N/A   Overcast
4:51 AM 1.4 °F - -2.6 °F 83% 30.25 in 10.0 mi Calm Calm - N/A   Overcast
5:11 AM 1.9 °F -9.2 °F -2.2 °F 83% 30.24 in 10.0 mi SE 5.8 mph - N/A   Overcast
5:31 AM 2.3 °F -10.2 °F -1.5 °F 84% 30.24 in 10.0 mi SE 6.9 mph - N/A   Overcast
5:50 AM 3.2 °F -9.1 °F -0.8 °F 84% 30.23 in 10.0 mi SE 6.9 mph - N/A   Overcast
6:11 AM 3.9 °F -6.9 °F -0.4 °F 82% 30.23 in 10.0 mi SE 5.8 mph - N/A   Overcast
6:31 AM 4.6 °F -7.4 °F 0.3 °F 82% 30.23 in 10.0 mi SSE 6.9 mph - N/A   Overcast
6:51 AM 5.7 °F -7.2 °F 1.0 °F 81% 30.23 in 10.0 mi SE 8.1 mph - N/A   Overcast
7:11 AM 6.4 °F -3.9 °F 1.8 °F 81% 30.22 in 10.0 mi SE 5.8 mph - N/A   Overcast
7:30 AM 6.8 °F -4.8 °F 2.1 °F 81% 30.22 in 10.0 mi SE 6.9 mph - N/A   Overcast
7:51 AM 7.5 °F -2.6 °F 2.5 °F 80% 30.22 in 10.0 mi SE 5.8 mph - N/A   Overcast
8:11 AM 7.7 °F -2.4 °F 3.0 °F 81% 30.22 in 10.0 mi SE 5.8 mph - N/A   Overcast
8:30 AM 8.2 °F -1.8 °F 3.4 °F 81% 30.21 in 10.0 mi SE 5.8 mph - N/A   Overcast
8:51 AM 8.6 °F -1.3 °F 3.9 °F 81% 30.21 in 10.0 mi SE 5.8 mph - N/A   Overcast
9:11 AM 9.5 °F -1.5 °F 4.8 °F 81% 30.21 in 10.0 mi SE 6.9 mph - N/A   Overcast
9:31 AM 10.4 °F - 5.5 °F 81% 30.20 in 10.0 mi Calm Calm - N/A   Overcast
9:51 AM 11.3 °F -0.4 °F 6.3 °F 80% 30.21 in 10.0 mi SE 8.1 mph - N/A   Overcast
10:11 AM 12.7 °F 2.4 °F 7.7 °F 80% 30.21 in 10.0 mi SSE 6.9 mph - N/A   Overcast
10:30 AM 13.6 °F 2.5 °F 8.6 °F 80% 30.20 in 10.0 mi SSE 8.1 mph - N/A   Overcast
10:51 AM 14.0 °F 3.9 °F 9.1 °F 81% 30.19 in 10.0 mi SSE 6.9 mph - N/A   Overcast
11:11 AM 14.9 °F 5.0 °F 10.0 °F 81% 30.18 in 10.0 mi SSE 6.9 mph - N/A   Overcast
11:30 AM 15.8 °F 5.1 °F 10.6 °F 80% 30.18 in 10.0 mi South 8.1 mph - N/A   Overcast
11:51 AM 16.3 °F 5.7 °F 11.3 °F 81% 30.17 in 10.0 mi SSE 8.1 mph - N/A   Overcast
12:10 PM 17.1 °F 6.6 °F 11.8 °F 80% 30.16 in 10.0 mi South 8.1 mph - N/A   Overcast
12:30 PM 18.0 °F 8.7 °F 13.1 °F 81% 30.15 in 10.0 mi South 6.9 mph - N/A   Overcast
12:51 PM 19.2 °F 10.2 °F 14.4 °F 81% 30.15 in 10.0 mi South 6.9 mph - N/A   Overcast
1:10 PM 20.5 °F 11.7 °F 15.6 °F 81% 30.14 in 10.0 mi SSW 6.9 mph - N/A   Overcast
1:31 PM 22.1 °F 8.9 °F 17.2 °F 82% 30.13 in 10.0 mi SW 15.0 mph - N/A   Overcast
1:50 PM 22.5 °F 9.9 °F 17.6 °F 82% 30.13 in 10.0 mi SW 13.8 mph - N/A   Overcast
2:11 PM 22.6 °F 9.2 °F 17.6 °F 81% 30.12 in 10.0 mi SW 16.1 mph - N/A   Overcast
2:30 PM 22.8 °F 11.5 °F 17.6 °F 80% 30.12 in 10.0 mi SW 11.5 mph - N/A   Overcast
2:51 PM 22.6 °F 11.3 °F 17.6 °F 81% 30.12 in 10.0 mi SSW 11.5 mph - N/A   Overcast
3:10 PM 22.5 °F 10.5 °F 17.6 °F 82% 30.12 in 10.0 mi SSW 12.7 mph 16.1 mph N/A   Overcast
3:31 PM 22.1 °F 10.0 °F 17.6 °F 83% 30.11 in 10.0 mi SSW 12.7 mph - N/A   Overcast
3:51 PM 21.7 °F 9.0 °F 17.6 °F 84% 30.11 in 7.0 mi SSW 13.8 mph - N/A   Overcast
4:11 PM 21.2 °F 9.5 °F 17.4 °F 85% 30.11 in 7.0 mi SSW 11.5 mph - N/A   Overcast
4:30 PM 21.0 °F 9.9 °F 17.2 °F 85% 30.10 in 7.0 mi South 10.4 mph - N/A   Overcast
4:51 PM 20.8 °F 9.7 °F 17.1 °F 85% 30.09 in 7.0 mi South 10.4 mph - N/A   Overcast
5:10 PM 19.9 °F 13.4 °F 16.7 °F 87% 30.09 in 7.0 mi South 4.6 mph - N/A   Overcast
5:31 PM 20.3 °F 10.6 °F 17.1 °F 87% 30.09 in 10.0 mi South 8.1 mph - N/A   Overcast
5:50 PM 21.0 °F 10.6 °F 17.4 °F 86% 30.08 in 10.0 mi SSW 9.2 mph - N/A   Overcast
6:11 PM 21.2 °F 11.7 °F 17.6 °F 86% 30.08 in 10.0 mi SSW 8.1 mph - N/A   Overcast
6:30 PM 21.4 °F 11.9 °F 17.6 °F 85% 30.07 in 10.0 mi SSW 8.1 mph - N/A   Overcast
6:51 PM 21.2 °F 10.9 °F 17.6 °F 86% 30.06 in 10.0 mi SSW 9.2 mph - N/A   Overcast
7:11 PM 21.2 °F 12.6 °F 17.6 °F 86% 30.06 in 10.0 mi SSW 6.9 mph - N/A   Overcast
7:31 PM 21.2 °F 13.6 °F 17.8 °F 87% 30.05 in 10.0 mi SSW 5.8 mph - N/A   Overcast
7:51 PM 21.6 °F 14.0 °F 18.0 °F 86% 30.05 in 10.0 mi South 5.8 mph - N/A   Overcast
8:11 PM 21.9 °F 12.5 °F 18.5 °F 87% 30.04 in 10.0 mi SSW 8.1 mph - N/A   Overcast
8:30 PM 21.9 °F 15.7 °F 18.5 °F 87% 30.04 in 7.0 mi South 4.6 mph - N/A   Overcast
8:51 PM 21.9 °F 12.5 °F 18.3 °F 86% 30.03 in 7.0 mi SSW 8.1 mph - N/A   Overcast
9:11 PM 22.1 °F 12.0 °F 18.5 °F 86% 30.03 in 10.0 mi SW 9.2 mph - N/A   Overcast
9:31 PM 21.9 °F 14.5 °F 18.5 °F 87% 30.02 in 7.0 mi South 5.8 mph - N/A   Overcast
9:50 PM 21.9 °F 12.5 °F 18.3 °F 86% 30.01 in 7.0 mi SSW 8.1 mph - N/A   Overcast
10:11 PM 21.2 °F 11.7 °F 18.0 °F 87% 30.01 in 7.0 mi South 8.1 mph - N/A   Overcast
10:30 PM 21.6 °F 11.3 °F 17.6 °F 85% 30.00 in 7.0 mi SSW 9.2 mph - N/A   Overcast
10:51 PM 20.1 °F 11.3 °F 16.5 °F 86% 30.00 in 7.0 mi South 6.9 mph - N/A   Scattered Clouds
11:10 PM 18.7 °F 8.6 °F 15.3 °F 87% 30.00 in 7.0 mi South 8.1 mph - N/A   Clear
11:31 PM 14.2 °F 3.1 °F 11.3 °F 88% 30.00 in 7.0 mi South 8.1 mph - N/A   Clear
11:51 PM 12.0 °F 0.5 °F 9.3 °F 89% 29.99 in 7.0 mi South 8.1 mph - N/A   Clear